Time,TemperatureF,DewpointF,PressureIn,WindDirection,WindDirectionDegrees,WindSpeedMPH,WindSpeedGustMPH,Humidity,HourlyPrecipIn,Conditions,Clouds,dailyrainin,SolarRadiationWatts/m^2,SoftwareType,DateUTC
2013-04-18 00:02:00,72.0,68.0,-100.00,SSW,208,3.0,10.0,87,0.00,,,0.00,0.000000,,2013-04-18 05:02:00,
2013-04-18 00:33:00,71.0,68.0,-100.00,SSW,205,2.0,9.0,89,0.00,,,0.00,0.000000,,2013-04-18 05:33:00,
2013-04-18 00:42:00,71.0,68.0,-100.00,SSW,205,2.0,9.0,89,0.00,,,0.00,0.000000,,2013-04-18 05:42:00,
2013-04-18 00:52:00,71.0,68.0,-100.00,SSW,205,2.0,9.0,89,0.00,,,0.00,0.000000,,2013-04-18 05:52:00,
2013-04-18 01:02:00,71.0,68.0,-100.00,SSW,205,2.0,9.0,89,0.00,,,0.00,0.000000,,2013-04-18 06:02:00,
2013-04-18 01:32:00,70.0,67.0,-100.00,SW,217,3.0,9.0,91,0.00,,,0.00,0.000000,,2013-04-18 06:32:00,
2013-04-18 01:42:00,70.0,67.0,-100.00,SW,217,3.0,9.0,91,0.00,,,0.00,0.000000,,2013-04-18 06:42:00,
2013-04-18 01:52:00,70.0,67.0,-100.00,SW,217,3.0,9.0,91,0.00,,,0.00,0.000000,,2013-04-18 06:52:00,
2013-04-18 02:02:00,70.0,67.0,-100.00,SW,217,3.0,9.0,91,0.00,,,0.00,0.000000,,2013-04-18 07:02:00,
2013-04-18 02:32:00,68.0,67.0,-100.00,SSW,200,1.0,8.0,95,0.00,,,0.00,0.000000,,2013-04-18 07:32:00,
2013-04-18 02:42:00,68.0,67.0,-100.00,SSW,200,1.0,8.0,95,0.00,,,0.00,0.000000,,2013-04-18 07:42:00,
2013-04-18 02:52:00,68.0,67.0,-100.00,SSW,200,1.0,8.0,95,0.00,,,0.00,0.000000,,2013-04-18 07:52:00,
2013-04-18 03:02:00,68.0,67.0,-100.00,SSW,200,1.0,8.0,95,0.00,,,0.00,0.000000,,2013-04-18 08:02:00,
2013-04-18 03:32:00,68.0,67.0,-100.00,SSW,192,3.0,8.0,95,0.00,,,0.00,0.000000,,2013-04-18 08:32:00,
2013-04-18 03:42:00,68.0,67.0,-100.00,SSW,192,3.0,8.0,95,0.00,,,0.00,0.000000,,2013-04-18 08:42:00,
2013-04-18 03:52:00,68.0,67.0,-100.00,SSW,192,3.0,8.0,95,0.00,,,0.00,0.000000,,2013-04-18 08:52:00,
2013-04-18 04:02:00,68.0,67.0,-100.00,SSW,192,3.0,8.0,95,0.00,,,0.00,0.000000,,2013-04-18 09:02:00,
2013-04-18 04:33:00,68.0,67.0,-100.00,SSW,210,1.0,8.0,95,0.00,,,0.00,0.000000,,2013-04-18 09:33:00,
2013-04-18 04:43:00,68.0,67.0,-100.00,SSW,210,1.0,8.0,95,0.00,,,0.00,0.000000,,2013-04-18 09:43:00,
2013-04-18 04:53:00,68.0,67.0,-100.00,SSW,210,1.0,8.0,95,0.00,,,0.00,0.000000,,2013-04-18 09:53:00,
2013-04-18 05:03:00,68.0,67.0,-100.00,SSW,210,1.0,8.0,95,0.00,,,0.00,0.000000,,2013-04-18 10:03:00,
2013-04-18 05:33:00,68.0,67.0,-100.00,SE,134,1.0,6.0,96,0.00,,,0.00,0.000000,,2013-04-18 10:33:00,
2013-04-18 05:42:00,68.0,67.0,-100.00,SE,134,1.0,6.0,96,0.00,,,0.00,0.000000,,2013-04-18 10:42:00,
2013-04-18 05:52:00,68.0,67.0,-100.00,SE,134,1.0,6.0,96,0.00,,,0.00,0.000000,,2013-04-18 10:52:00,
2013-04-18 06:02:00,68.0,67.0,-100.00,SE,134,1.0,6.0,96,0.00,,,0.00,0.000000,,2013-04-18 11:02:00,
2013-04-18 06:32:00,68.0,67.0,-100.00,SSW,208,3.0,9.0,96,0.00,,,0.00,0.000000,,2013-04-18 11:32:00,
2013-04-18 06:42:00,68.0,67.0,-100.00,SSW,208,3.0,9.0,96,0.00,,,0.00,0.000000,,2013-04-18 11:42:00,
2013-04-18 06:52:00,68.0,67.0,-100.00,SSW,208,3.0,9.0,96,0.00,,,0.00,0.000000,,2013-04-18 11:52:00,
2013-04-18 07:02:00,68.0,67.0,-100.00,SSW,208,3.0,9.0,96,0.00,,,0.00,0.000000,,2013-04-18 12:02:00,
2013-04-18 07:32:00,68.0,66.0,-100.00,SSW,204,3.0,12.0,94,0.00,,,0.00,5.000000,,2013-04-18 12:32:00,
2013-04-18 07:42:00,68.0,66.0,-100.00,SSW,204,3.0,12.0,94,0.00,,,0.00,5.000000,,2013-04-18 12:42:00,
2013-04-18 07:52:00,68.0,66.0,-100.00,SSW,204,3.0,12.0,94,0.00,,,0.00,5.000000,,2013-04-18 12:52:00,
2013-04-18 08:02:00,68.0,66.0,-100.00,SSW,204,3.0,12.0,94,0.00,,,0.00,5.000000,,2013-04-18 13:02:00,
2013-04-18 08:33:00,70.0,68.0,-100.00,SSE,159,3.0,11.0,92,0.00,,,0.00,47.000000,,2013-04-18 13:33:00,
2013-04-18 08:43:00,70.0,68.0,-100.00,SSE,159,3.0,11.0,92,0.00,,,0.00,47.000000,,2013-04-18 13:43:00,
2013-04-18 08:53:00,70.0,68.0,-100.00,SSE,159,3.0,11.0,92,0.00,,,0.00,47.000000,,2013-04-18 13:53:00,
2013-04-18 09:02:00,70.0,68.0,-100.00,SSE,159,3.0,11.0,92,0.00,,,0.00,47.000000,,2013-04-18 14:02:00,
2013-04-18 09:33:00,73.0,68.0,-100.00,SW,219,4.0,14.0,84,0.00,,,0.00,174.000000,,2013-04-18 14:33:00,
2013-04-18 09:43:00,73.0,68.0,-100.00,SW,219,4.0,14.0,84,0.00,,,0.00,174.000000,,2013-04-18 14:43:00,
2013-04-18 09:52:00,73.0,68.0,-100.00,SW,219,4.0,14.0,84,0.00,,,0.00,174.000000,,2013-04-18 14:52:00,
2013-04-18 10:02:00,73.0,68.0,-100.00,SW,219,4.0,14.0,84,0.00,,,0.00,174.000000,,2013-04-18 15:02:00,
2013-04-18 10:33:00,75.0,68.0,-100.00,SW,219,4.0,11.0,79,0.00,,,0.00,190.000000,,2013-04-18 15:33:00,
2013-04-18 10:43:00,75.0,68.0,-100.00,SW,219,4.0,11.0,79,0.00,,,0.00,190.000000,,2013-04-18 15:43:00,
2013-04-18 10:53:00,75.0,68.0,-100.00,SW,219,4.0,11.0,79,0.00,,,0.00,190.000000,,2013-04-18 15:53:00,
2013-04-18 11:03:00,75.0,68.0,-100.00,SW,219,4.0,11.0,79,0.00,,,0.00,190.000000,,2013-04-18 16:03:00,
2013-04-18 11:33:00,77.0,69.0,-100.00,SW,217,4.0,11.0,76,0.00,,,0.00,253.000000,,2013-04-18 16:33:00,
2013-04-18 11:43:00,77.0,69.0,-100.00,SW,217,4.0,11.0,76,0.00,,,0.00,253.000000,,2013-04-18 16:43:00,
2013-04-18 11:53:00,77.0,69.0,-100.00,SW,217,4.0,11.0,76,0.00,,,0.00,253.000000,,2013-04-18 16:53:00,
2013-04-18 12:03:00,77.0,69.0,-100.00,SW,217,4.0,11.0,76,0.00,,,0.00,253.000000,,2013-04-18 17:03:00,
2013-04-18 12:33:00,78.0,69.0,-100.00,SW,214,5.0,13.0,75,0.00,,,0.00,309.000000,,2013-04-18 17:33:00,
2013-04-18 12:43:00,78.0,69.0,-100.00,SW,214,5.0,13.0,75,0.00,,,0.00,309.000000,,2013-04-18 17:43:00,
2013-04-18 12:52:00,78.0,69.0,-100.00,SW,214,5.0,13.0,75,0.00,,,0.00,309.000000,,2013-04-18 17:52:00,
2013-04-18 13:02:00,78.0,69.0,-100.00,SW,214,5.0,13.0,75,0.00,,,0.00,309.000000,,2013-04-18 18:02:00,
2013-04-18 13:33:00,80.0,71.0,-100.00,SW,214,4.0,11.0,73,0.00,,,0.00,365.000000,,2013-04-18 18:33:00,
2013-04-18 13:43:00,80.0,71.0,-100.00,SW,214,4.0,11.0,73,0.00,,,0.00,365.000000,,2013-04-18 18:43:00,
2013-04-18 13:52:00,80.0,71.0,-100.00,SW,214,4.0,11.0,73,0.00,,,0.00,365.000000,,2013-04-18 18:52:00,
2013-04-18 14:02:00,80.0,71.0,-100.00,SW,214,4.0,11.0,73,0.00,,,0.00,365.000000,,2013-04-18 19:02:00,
2013-04-18 14:33:00,83.0,71.0,-100.00,SSW,207,4.0,11.0,68,0.00,,,0.00,464.000000,,2013-04-18 19:33:00,
2013-04-18 14:42:00,83.0,71.0,-100.00,SSW,207,4.0,11.0,68,0.00,,,0.00,464.000000,,2013-04-18 19:42:00,
2013-04-18 14:53:00,83.0,71.0,-100.00,SSW,207,4.0,11.0,68,0.00,,,0.00,464.000000,,2013-04-18 19:53:00,
2013-04-18 15:02:00,83.0,71.0,-100.00,SSW,207,4.0,11.0,68,0.00,,,0.00,464.000000,,2013-04-18 20:02:00,
2013-04-18 15:32:00,81.0,69.0,-100.00,SSW,206,3.0,14.0,68,0.00,,,0.00,336.000000,,2013-04-18 20:32:00,
2013-04-18 15:42:00,81.0,69.0,-100.00,SSW,206,3.0,14.0,68,0.00,,,0.00,336.000000,,2013-04-18 20:42:00,
2013-04-18 15:52:00,81.0,69.0,-100.00,SSW,206,3.0,14.0,68,0.00,,,0.00,336.000000,,2013-04-18 20:52:00,
2013-04-18 16:02:00,81.0,69.0,-100.00,SSW,206,3.0,14.0,68,0.00,,,0.00,336.000000,,2013-04-18 21:02:00,
2013-04-18 17:33:00,79.0,71.0,-100.00,SW,215,4.0,12.0,77,-99.99,,,0.00,245.000000,,2013-04-18 22:33:00,
2013-04-18 17:42:00,79.0,71.0,-100.00,SW,215,4.0,12.0,77,-99.99,,,0.00,245.000000,,2013-04-18 22:42:00,
2013-04-18 17:52:00,79.0,71.0,-100.00,SW,215,4.0,12.0,77,-99.99,,,0.00,245.000000,,2013-04-18 22:52:00,
2013-04-18 18:04:00,79.0,71.0,-100.00,SW,215,4.0,12.0,77,-99.99,,,0.00,245.000000,,2013-04-18 23:04:00,
2013-04-18 18:32:00,78.0,71.0,-100.00,SW,217,4.0,11.0,79,0.00,,,0.00,138.000000,,2013-04-18 23:32:00,
2013-04-18 18:42:00,78.0,71.0,-100.00,SW,217,4.0,11.0,79,0.00,,,0.00,138.000000,,2013-04-18 23:42:00,
2013-04-18 18:52:00,78.0,71.0,-100.00,SW,217,4.0,11.0,79,0.00,,,0.00,138.000000,,2013-04-18 23:52:00,
2013-04-18 19:01:00,78.0,71.0,-100.00,SW,217,4.0,11.0,79,0.00,,,0.00,138.000000,,2013-04-19 00:01:00,
2013-04-18 19:32:00,76.0,71.0,-100.00,SSW,212,4.0,10.0,84,0.00,,,0.00,30.000000,,2013-04-19 00:32:00,
2013-04-18 19:42:00,76.0,71.0,-100.00,SSW,212,4.0,10.0,84,0.00,,,0.00,30.000000,,2013-04-19 00:42:00,
2013-04-18 19:52:00,76.0,71.0,-100.00,SSW,212,4.0,10.0,84,0.00,,,0.00,30.000000,,2013-04-19 00:52:00,
2013-04-18 20:01:00,76.0,71.0,-100.00,SSW,212,4.0,10.0,84,0.00,,,0.00,30.000000,,2013-04-19 01:01:00,
2013-04-18 20:32:00,75.0,71.0,-100.00,SSW,209,4.0,10.0,88,0.00,,,0.00,2.000000,,2013-04-19 01:32:00,
2013-04-18 20:42:00,75.0,71.0,-100.00,SSW,209,4.0,10.0,88,0.00,,,0.00,2.000000,,2013-04-19 01:42:00,
2013-04-18 20:52:00,75.0,71.0,-100.00,SSW,209,4.0,10.0,88,0.00,,,0.00,2.000000,,2013-04-19 01:52:00,
2013-04-18 21:02:00,75.0,71.0,-100.00,SSW,209,4.0,10.0,88,0.00,,,0.00,2.000000,,2013-04-19 02:02:00,
2013-04-18 21:32:00,75.0,72.0,-100.00,SW,215,4.0,14.0,89,0.00,,,0.00,0.000000,,2013-04-19 02:32:00,
2013-04-18 21:42:00,75.0,72.0,-100.00,SW,215,4.0,14.0,89,0.00,,,0.00,0.000000,,2013-04-19 02:42:00,
2013-04-18 21:52:00,75.0,72.0,-100.00,SW,215,4.0,14.0,89,0.00,,,0.00,0.000000,,2013-04-19 02:52:00,
2013-04-18 22:01:00,75.0,72.0,-100.00,SW,215,4.0,14.0,89,0.00,,,0.00,0.000000,,2013-04-19 03:01:00,
2013-04-18 22:33:00,75.0,72.0,-100.00,SSW,206,4.0,19.0,89,0.00,,,0.00,0.000000,,2013-04-19 03:33:00,
2013-04-18 22:43:00,75.0,72.0,-100.00,SSW,206,4.0,19.0,89,0.00,,,0.00,0.000000,,2013-04-19 03:43:00,
2013-04-18 22:53:00,75.0,72.0,-100.00,SSW,206,4.0,19.0,89,0.00,,,0.00,0.000000,,2013-04-19 03:53:00,
2013-04-18 23:03:00,75.0,72.0,-100.00,SSW,206,4.0,19.0,89,0.00,,,0.00,0.000000,,2013-04-19 04:03:00,
2013-04-18 23:33:00,74.0,72.0,-100.00,SSW,211,4.0,11.0,92,0.00,,,0.00,0.000000,,2013-04-19 04:33:00,
2013-04-18 23:43:00,74.0,72.0,-100.00,SSW,211,4.0,11.0,92,0.00,,,0.00,0.000000,,2013-04-19 04:43:00,
2013-04-18 23:52:00,74.0,72.0,-100.00,SSW,211,4.0,11.0,92,0.00,,,0.00,0.000000,,2013-04-19 04:52:00,